Location: Ellerstadt
(49.4644°N, 8.2615°E)
Time: 02:14:53
(UTC+00:00)

ISS - Pass Details

Date: 16 May 2021
Orbit: 417 x 422 km, 51.6° (Epoch: 15 June)

Event Time Altitude Azimuth Distance (km) Brightness Sun altitude
Rises 02:27:48 0° 286° (WNW) 2,375 -0.2 -10.2°
Reaches altitude 10° 02:30:13 10° 270° (W) 1,508 -1.3 -9.9°
Maximum altitude 02:32:52 22° 218° (SW) 990 -2.5 -9.6°
Drops below altitude 10° 02:35:31 10° 167° (SSE) 1,502 -1.2 -9.3°
Sets 02:37:55 0° 151° (SSE) 2,363 -0.1 -9.0°
